User: anonymous   Login
Location: Unspecified
(0.0000°N, 0.0000°E)
Time: 10:47:56
(UTC+01:00)
Language:

ATLAS 3B CENTAUR R/B - Orbit

View from above orbital plane
View from above orbital plane
View from above satellite
View from above satellite

Ground track
Ground track

The orbit data is extracted from the following two-line orbital elements,

1 28118U 03057B   16042.10209099  .00107404  00000-0  20735-2 0  9993
2 28118  28.1211 281.2798 3388511  44.9364 338.0226  8.68919981245085
Epoch (UTC): 11 February 2016 02:27:00
Eccentricity: 0.3388511
inclination: 28.1211°
perigee height: 229 km
apogee height: 7002 km
right ascension of ascending node: 281.2798°
argument of perigee: 44.9364°
revolutions per day: 8.68919981
mean anomaly at epoch: 338.0226°
orbit number at epoch: 24508

The dashed part of the orbit path shows where the satellite is in the earth's shadow,  

DLR